Regional Weather Roundup
Issued by NWS

Home | Current Version | Previous Version | Graphics & Text | Print | Product List | Glossary On
Versions: 1 2 3 4 5 6 7 8 9 10 11 12 13 14 15 16 17 18 19 20 21 22 23 24 25 26 27 28 29 30 31 32 33 34 35 36 37 38 39 40 41 42 43 44 45 46 47 48 49 50
000
ASUS43 KFSD 160010
RWRSD

WEATHER ROUNDUP FOR SOUTH DAKOTA
NATIONAL WEATHER SERVICE SIOUX FALLS SD
700 PM CDT TUE APR 15 2014

NOTE: "FAIR" INDICATES FEW OR NO CLOUDS BELOW 12,000 FEET WITH NO
SIGNIFICANT WEATHER AND/OR OBSTRUCTIONS TO VISIBILITY.


SDZ001>005-009-010-012>017-160100-
NORTHWEST AND NORTH CENTRAL SOUTH DAKOTA

CITY           SKY/WX    TMP DP  RH WIND       PRES   REMARKS
BUFFALO          N/A     59  22  24 NW17      29.48R
MOBRIDGE       CLOUDY    50  22  33 E22       29.60F
$$

SDZ012>016-024>037-041>051-057-063-072>074-160100-
SOUTHWEST AND SOUTH CENTRAL SOUTH DAKOTA

CITY           SKY/WX    TMP DP  RH WIND       PRES   REMARKS
RAPID CTY ARPT CLOUDY    61  29  29 SE5       29.53F
PIERRE         CLOUDY    58  26  29 SE18      29.57S
CUSTER         CLOUDY    52  17  25 VRB5      29.61F
ELLSWORTH AFB  CLOUDY    61  26  26 SE6       29.53F
PHILIP         CLOUDY    64  19  17 S5        29.54F
PINE RIDGE     PTSUNNY   61  21  21 W10       29.59F
SPEARFISH      FAIR      57  27  30 NW14      29.57S
WINNER         FAIR      66  25  21 S7        29.58F
$$

SDZ004>011-016>023-039-040-160100-
NORTHEAST SOUTH DAKOTA

CITY           SKY/WX    TMP DP  RH WIND       PRES   REMARKS
ABERDEEN       MOSUNNY   44  19  36 SE17G24   29.77F
WATERTOWN      PTSUNNY   41  17  38 SE18G26   29.82F
SISSETON         N/A     35  13  40 SE18      29.90F WCI  24
$$

SDZ017-020-022-023-036>040-048>070-160100-
SOUTHEAST SOUTH DAKOTA

CITY           SKY/WX    TMP DP  RH WIND       PRES   REMARKS
SIOUX FALLS    PTSUNNY   47  22  37 SE21G28   29.84F
HURON          PTSUNNY   51  24  34 SE18G25   29.72F
CHAMBERLAIN      N/A     58  27  30 SE21G31   29.60F
MITCHELL       MOSUNNY   53  29  39 S24G33    29.73F
YANKTON        SUNNY     52  28  40 SE21G26   29.80F
$$

ABBREVIATIONS USED IN REMARKS
   TC - TEMPERATURE IN CELSIUS
  WCI - WIND CHILL INDEX
   HX - HEAT INDEX
  VSB - VISIBILITY




USA.gov is the U.S. government's official web portal to all federal, state and local government web resources and services.